�N����,����,�~����,�C��,���x,�C��,����,���ϕ���,�ő�u�ԕ���,�ő厞����,���˗�,�I�_���x,�n�����x,�ő啗���N��,DTYPE
"23/09/08","00:10",0.0,22.5,94.6,1004.8,315.9,1.3,2.8,330.2,0.00,21.6,24.6,"00:06:24",1
"23/09/08","00:20",0.4,22.5,94.6,1004.5,323.5,1.2,1.8,322.7,0.00,21.6,24.6,"00:12:24",1
"23/09/08","00:30",0.4,22.5,94.7,1004.5,328.7,2.0,3.6,346.4,0.00,21.6,24.5,"00:28:00",1
"23/09/08","00:40",0.0,22.5,94.8,1004.5,326.6,1.5,2.8,343.3,0.00,21.7,24.5,"00:30:40",1
"23/09/08","00:50",0.4,22.4,94.8,1004.3,337.8,1.5,3.1,345.3,0.00,21.6,24.6,"00:40:24",1
"23/09/08","01:00",0.0,22.4,94.9,1004.3,335.2,1.6,3.4,354.3,0.00,21.6,24.7,"00:54:40",1
"23/09/08","01:10",0.2,22.4,94.9,1004.5,296.0,1.3,2.7,348.6,0.00,21.6,24.7,"01:00:16",1
"23/09/08","01:20",0.0,22.4,95.0,1004.3,314.5,1.5,2.7,296.8,0.00,21.6,24.7,"01:10:16",1
"23/09/08","01:30",0.0,22.4,95.0,1004.3,304.7,1.3,2.6,270.3,0.00,21.6,24.5,"01:23:52",1
"23/09/08","01:40",0.0,22.4,95.1,1004.5,322.9,1.6,3.5,320.2,0.00,21.6,24.4,"01:32:40",1
"23/09/08","01:50",0.0,22.4,95.1,1004.3,335.2,1.8,3.2,336.2,0.00,21.6,24.5,"01:40:08",1
"23/09/08","02:00",0.0,22.4,95.2,1004.1,333.7,1.3,2.8,346.9,0.00,21.6,24.6,"01:55:04",1
"23/09/08","02:10",0.0,22.4,95.2,1003.6,318.3,1.3,3.5,341.1,0.00,21.6,24.3,"02:01:20",1
"23/09/08","02:20",0.0,22.4,95.2,1003.1,315.0,1.2,2.0,339.5,0.00,21.6,24.6,"02:18:08",1
"23/09/08","02:30",0.0,22.3,95.2,1003.4,338.4,2.5,4.7,347.4,0.00,21.5,24.4,"02:27:52",1
"23/09/08","02:40",0.0,22.2,95.3,1002.9,329.2,1.8,3.9,329.0,0.00,21.5,24.5,"02:30:24",1
"23/09/08","02:50",0.0,22.3,95.3,1003.1,310.6,1.5,3.1,317.5,0.00,21.6,24.3,"02:41:12",1
"23/09/08","03:00",0.0,22.4,95.2,1002.6,334.0,1.3,2.6,317.9,0.00,21.6,24.5,"02:52:32",1
"23/09/08","03:10",0.0,22.3,95.2,1002.9,317.4,1.3,2.8,333.9,0.00,21.5,24.4,"03:06:02",1
"23/09/08","03:20",0.0,22.4,95.2,1003.6,294.9,1.5,2.9,322.9,0.00,21.6,24.5,"03:13:20",1
"23/09/08","03:30",0.0,22.4,95.2,1003.1,306.8,0.8,1.8,326.0,0.00,21.6,24.6,"03:26:32",1
"23/09/08","03:40",0.0,22.5,95.1,1003.1,354.3,0.5,1.4,354.9,0.00,21.7,24.4,"03:30:08",1
"23/09/08","03:50",0.0,22.4,95.1,1003.4,343.1,0.3,0.6,321.0,0.00,21.6,24.5,"03:43:12",1
"23/09/08","04:00",0.0,22.4,95.1,1003.1,342.5,0.5,1.4,353.7,0.00,21.6,24.5,"03:59:12",1
"23/09/08","04:10",0.0,22.2,95.1,1003.1,322.1,0.5,1.1,319.5,0.00,21.4,24.4,"04:04:08",1
"23/09/08","04:20",0.0,22.0,95.1,1003.1,320.4,0.2,0.6,340.8,0.00,21.2,24.5,"04:16:24",1
"23/09/08","04:30",0.0,22.1,95.2,1002.6,326.2,0.8,1.3,313.6,0.00,21.3,24.2,"04:22:00",1
"23/09/08","04:40",0.0,22.1,95.2,1002.6,343.6,1.2,1.9,336.7,0.00,21.3,24.4,"04:32:56",1
"23/09/08","04:50",0.0,22.0,95.3,1002.9,326.4,0.8,1.7,288.9,0.00,21.3,24.2,"04:49:20",1
"23/09/08","05:00",0.0,22.1,95.3,1002.9,57.7,0.6,2.0,312.4,0.00,21.4,24.2,"04:50:32",1
"23/09/08","05:10",0.0,21.9,95.3,1002.9,337.0,0.6,1.3,344.1,0.00,21.2,24.4,"05:05:12",1
"23/09/08","05:20",0.0,22.0,95.4,1003.1,326.4,1.0,1.7,339.3,0.00,21.3,24.2,"05:13:44",1
"23/09/08","05:30",0.0,22.0,95.4,1003.1,28.1,0.5,1.4,353.2,0.00,21.3,24.3,"05:21:44",1
"23/09/08","05:40",0.0,22.0,95.4,1002.9,350.1,0.6,1.3,342.2,0.00,21.3,24.4,"05:38:00",1
"23/09/08","05:50",0.0,22.1,95.5,1002.6,319.8,1.0,2.1,328.2,0.00,21.4,24.2,"05:44:48",1
"23/09/08","06:00",0.0,22.1,95.5,1002.9,66.2,0.3,1.2,270.3,0.00,21.4,24.2,"05:50:48",1
"23/09/08","06:10",0.0,22.3,95.6,1003.1,268.4,0.2,0.6,106.2,0.00,21.6,24.3,"06:03:52",1
"23/09/08","06:20",0.0,22.4,95.6,1003.1,333.6,1.0,2.2,342.6,0.00,21.7,24.6,"06:19:20",1
"23/09/08","06:30",0.0,22.6,95.6,1003.4,341.5,1.1,2.1,324.5,0.01,21.9,24.3,"06:28:48",1
"23/09/08","06:40",0.0,22.9,95.5,1003.6,157.1,0.5,1.1,248.0,0.01,22.2,24.2,"06:31:04",1
"23/09/08","06:50",0.0,23.0,95.5,1003.4,266.5,0.1,0.8,208.9,0.02,22.3,24.3,"06:40:08",1
"23/09/08","07:00",0.0,23.2,95.5,1003.6,242.2,0.1,0.4,275.4,0.04,22.5,24.2,"06:50:16",1
"23/09/08","07:10",0.0,23.4,95.4,1003.1,205.9,0.1,0.6,225.9,0.04,22.7,24.3,"07:00:32",1
"23/09/08","07:20",0.0,23.5,95.4,1003.6,278.1,0.6,1.1,260.4,0.04,22.8,24.3,"07:13:28",1
"23/09/08","07:30",0.0,23.8,95.4,1003.6,305.0,0.5,1.1,294.1,0.06,23.1,24.2,"07:20:40",1
"23/09/08","07:40",0.0,24.1,95.3,1003.4,312.6,0.6,0.9,311.3,0.07,23.3,24.3,"07:31:28",1
"23/09/08","07:50",0.0,24.1,95.2,1003.4,82.0,0.2,0.6,106.0,0.07,23.3,24.3,"07:45:12",1
"23/09/08","08:00",0.0,24.2,95.1,1003.6,1.7,0.3,0.8,100.1,0.08,23.4,24.3,"07:50:56",1
"23/09/08","08:10",0.0,24.4,95.0,1003.4,326.4,0.3,1.2,351.1,0.09,23.6,24.4,"08:00:40",1
"23/09/08","08:20",0.0,24.5,94.9,1003.1,315.8,0.5,1.1,5.2,0.08,23.7,24.2,"08:11:28",1
"23/09/08","08:30",0.0,24.3,94.6,1002.9,287.7,1.0,1.7,259.9,0.08,23.4,24.4,"08:22:08",1
"23/09/08","08:40",0.0,24.2,94.3,1002.9,326.1,1.5,2.4,332.6,0.09,23.3,24.3,"08:39:44",1
"23/09/08","08:50",0.0,24.3,94.0,1002.9,324.5,2.2,3.6,348.1,0.12,23.3,24.3,"08:49:12",1
"23/09/08","09:00",0.0,24.5,93.2,1002.9,323.4,2.2,4.0,322.8,0.16,23.4,24.4,"08:50:24",1
"23/09/08","09:10",0.0,25.0,92.1,1002.9,325.0,2.3,4.7,343.4,0.18,23.7,24.4,"09:05:20",1
"23/09/08","09:20",0.0,25.6,90.3,1002.9,328.7,1.7,3.5,333.0,0.22,23.9,24.7,"09:19:36",1
"23/09/08","09:30",0.0,26.1,87.9,1002.6,316.8,1.6,3.3,333.4,0.20,24.0,24.3,"09:23:28",1
"23/09/08","09:40",0.0,26.8,84.5,1002.6,320.1,1.2,2.9,258.2,0.18,24.0,24.5,"09:32:00",1
"23/09/08","09:50",0.0,27.4,80.8,1002.6,347.2,1.5,4.4,349.6,0.17,23.8,24.4,"09:45:52",1
"23/09/08","10:00",0.0,27.9,78.4,1002.2,328.8,1.8,4.2,329.6,0.30,23.8,24.5,"09:59:04",1
"23/09/08","10:10",0.0,28.1,77.5,1001.7,339.2,1.8,3.7,350.0,0.19,23.8,24.4,"10:01:44",1
"23/09/08","10:20",0.0,28.2,76.7,1001.7,341.8,1.7,3.3,357.7,0.19,23.8,24.4,"10:12:48",1
"23/09/08","10:30",0.0,28.3,74.9,1001.7,333.7,1.6,3.4,357.6,0.18,23.5,24.5,"10:24:08",1
"23/09/08","10:40",0.0,28.6,74.1,1001.9,351.0,1.7,4.4,328.0,0.20,23.6,24.6,"10:34:32",1
"23/09/08","10:50",0.0,29.2,72.1,1002.2,14.5,1.1,3.5,34.1,0.23,23.7,24.7,"10:43:20",1
"23/09/08","11:00",0.0,29.2,71.0,1001.9,23.4,1.5,3.1,21.5,0.19,23.4,24.7,"10:58:32",1
"23/09/08","11:10",0.0,28.9,71.7,1001.9,339.9,1.5,4.2,350.1,0.16,23.3,24.7,"11:00:56",1
"23/09/08","11:20",0.0,29.1,71.3,1001.9,18.6,0.8,2.8,14.3,0.14,23.4,24.7,"11:10:48",1
"23/09/08","11:30",0.0,29.2,71.1,1001.9,344.0,1.3,3.3,319.9,0.17,23.5,24.7,"11:22:32",1
"23/09/08","11:40",0.0,29.2,70.9,1001.7,352.1,1.3,3.1,349.9,0.20,23.4,24.8,"11:34:24",1
"23/09/08","11:50",0.0,29.9,70.3,1002.2,346.1,1.2,3.5,304.5,0.33,23.9,24.8,"11:46:08",1
"23/09/08","12:00",0.2,30.5,67.4,1002.2,296.9,1.1,2.6,237.7,0.41,23.8,25.0,"11:56:48",1
"23/09/08","12:10",0.0,30.5,68.4,1001.9,358.8,1.6,4.7,22.4,0.33,24.1,24.7,"12:06:32",1
"23/09/08","12:20",0.0,30.1,67.2,1001.9,337.7,2.2,4.8,352.5,0.28,23.4,24.8,"12:13:28",1
"23/09/08","12:30",0.0,30.5,67.2,1002.2,343.7,1.6,3.4,346.4,0.41,23.8,24.8,"12:26:16",1
"23/09/08","12:40",0.0,30.8,65.4,1001.9,1.8,1.7,3.3,348.6,0.35,23.6,25.0,"12:32:48",1
"23/09/08","12:50",0.0,30.7,66.5,1002.2,350.2,2.0,3.6,354.4,0.41,23.8,24.9,"12:40:08",1
"23/09/08","13:00",0.0,30.2,65.7,1001.7,335.2,2.2,5.1,345.8,0.34,23.1,25.1,"12:50:32",1
"23/09/08","13:10",0.0,29.5,67.1,1001.5,347.5,2.3,6.2,345.3,0.13,22.8,25.2,"13:05:20",1
"23/09/08","13:20",0.0,29.6,67.7,1000.8,354.5,2.6,4.9,342.6,0.19,23.0,25.5,"13:12:40",1
"23/09/08","13:30",0.0,29.4,67.5,1000.3,330.4,2.8,5.2,313.9,0.16,22.8,25.1,"13:22:08",1
"23/09/08","13:40",0.0,29.5,68.6,1000.3,343.5,2.0,3.9,343.8,0.15,23.2,25.3,"13:32:56",1
"23/09/08","13:50",0.0,29.6,68.2,1000.5,336.6,2.0,5.1,344.1,0.20,23.2,25.2,"13:41:36",1
"23/09/08","14:00",0.0,29.8,66.9,1000.0,343.7,2.5,5.5,348.3,0.29,23.0,25.0,"13:59:36",1
"23/09/08","14:10",0.0,30.3,65.5,1000.8,339.0,2.3,5.0,318.2,0.35,23.2,25.2,"14:09:44",1
"23/09/08","14:20",0.0,30.8,64.5,1001.0,342.3,2.2,5.6,341.3,0.48,23.4,25.4,"14:16:56",1
"23/09/08","14:30",0.0,30.0,67.2,1001.0,345.5,2.8,5.2,345.3,0.32,23.3,25.2,"14:24:32",1
"23/09/08","14:40",0.0,29.5,67.2,1000.5,351.2,2.3,6.3,354.1,0.18,22.8,25.5,"14:37:28",1
"23/09/08","14:50",0.0,29.0,69.1,1000.5,354.7,2.2,5.9,2.8,0.13,22.8,25.4,"14:41:04",1
"23/09/08","15:00",0.0,28.6,69.8,1000.3,353.5,2.1,5.0,357.0,0.11,22.6,25.4,"14:54:24",1
"23/09/08","15:10",0.0,28.3,71.0,1000.0,345.0,1.8,4.1,359.4,0.07,22.6,25.5,"15:00:56",1
"23/09/08","15:20",0.0,28.1,71.6,999.8,347.2,1.8,4.4,342.1,0.08,22.5,25.5,"15:15:28",1
"23/09/08","15:30",0.0,27.7,71.5,999.8,352.9,2.6,6.0,356.2,0.09,22.1,25.5,"15:28:56",1
"23/09/08","15:40",0.0,27.6,71.1,1000.3,354.7,2.7,5.4,351.9,0.07,21.9,25.3,"15:34:00",1
"23/09/08","15:50",0.0,27.6,71.4,1000.5,2.3,1.8,4.3,5.3,0.07,22.0,25.5,"15:49:28",1
"23/09/08","16:00",0.0,27.7,71.1,1000.3,359.0,1.7,3.9,328.1,0.07,22.0,25.4,"15:53:20",1
"23/09/08","16:10",0.0,28.1,71.2,1000.0,2.1,1.3,2.8,324.1,0.09,22.4,25.5,"16:01:04",1
"23/09/08","16:20",0.0,27.9,70.8,1000.3,357.0,1.5,3.2,344.5,0.07,22.1,25.5,"16:14:24",1
"23/09/08","16:30",0.0,27.8,70.7,1000.3,9.0,1.3,3.2,353.9,0.06,22.0,25.7,"16:20:48",1
"23/09/08","16:40",0.0,27.4,71.9,1000.5,349.4,1.8,4.1,359.4,0.07,21.9,25.4,"16:37:20",1
"23/09/08","16:50",0.0,27.3,72.7,1001.0,355.1,1.2,2.9,317.3,0.06,22.0,25.3,"16:40:08",1
"23/09/08","17:00",0.0,27.3,72.4,1000.8,14.0,1.3,2.8,45.2,0.04,21.9,25.4,"16:55:04",1
"23/09/08","17:10",0.0,27.2,72.8,1000.8,8.1,1.1,3.1,11.2,0.04,21.9,25.2,"17:09:04",1
"23/09/08","17:20",0.0,27.0,73.0,1001.0,10.7,1.3,2.4,23.3,0.02,21.8,25.3,"17:19:44",1
"23/09/08","17:30",0.0,26.9,73.8,1001.0,353.1,1.0,2.0,17.3,0.01,21.9,25.3,"17:22:00",1
"23/09/08","17:40",0.0,26.6,74.8,1001.0,350.1,1.2,2.7,350.2,0.00,21.8,25.4,"17:38:08",1
"23/09/08","17:50",0.0,26.4,76.0,1001.0,346.5,1.2,2.2,340.2,0.00,21.9,25.4,"17:44:48",1
"23/09/08","18:00",0.0,26.2,76.5,1001.5,332.4,1.2,2.2,1.6,0.00,21.8,25.3,"17:51:20",1
"23/09/08","18:10",0.0,26.1,77.2,1001.2,322.9,0.8,1.7,332.1,0.00,21.8,25.4,"18:01:20",1
"23/09/08","18:20",0.0,25.9,78.3,1001.7,321.8,0.6,1.0,345.1,0.00,21.9,25.2,"18:17:04",1
"23/09/08","18:30",0.0,25.7,80.0,1001.7,345.9,1.1,1.8,342.1,0.00,22.0,25.3,"18:27:36",1
"23/09/08","18:40",0.0,25.4,80.7,1001.9,342.1,1.3,2.4,336.1,0.00,21.9,25.3,"18:31:52",1
"23/09/08","18:50",0.0,25.1,81.6,1002.4,340.4,1.1,2.1,342.0,0.00,21.8,25.2,"18:46:40",1
"23/09/08","19:00",0.0,24.9,82.5,1001.7,340.5,1.5,2.9,341.0,0.00,21.8,25.2,"18:57:12",1
"23/09/08","19:10",0.0,24.9,82.7,1002.2,338.1,1.6,2.8,345.6,0.00,21.8,25.2,"19:03:12",1
"23/09/08","19:20",0.0,24.7,82.8,1002.2,344.2,1.5,3.5,337.3,0.00,21.6,25.0,"19:14:24",1
"23/09/08","19:30",0.0,24.7,82.8,1002.2,325.3,1.5,2.2,328.9,0.00,21.6,25.1,"19:20:24",1
"23/09/08","19:40",0.0,24.7,82.5,1002.4,310.0,1.5,3.1,316.7,0.00,21.6,25.3,"19:39:36",1
"23/09/08","19:50",0.0,24.8,82.1,1002.4,324.9,2.1,5.7,335.1,0.00,21.6,24.9,"19:44:24",1
"23/09/08","20:00",0.0,24.8,81.8,1002.6,322.6,2.2,4.2,318.3,0.00,21.5,25.2,"19:57:28",1
"23/09/08","20:10",0.0,24.8,81.5,1002.4,312.5,1.8,4.1,314.3,0.00,21.5,25.2,"20:00:48",1
"23/09/08","20:20",0.0,24.7,81.5,1002.6,339.9,1.2,2.9,332.4,0.00,21.4,25.1,"20:10:56",1
"23/09/08","20:30",0.0,24.6,81.8,1002.6,352.9,0.8,1.6,333.1,0.00,21.3,25.1,"20:27:44",1
"23/09/08","20:40",0.0,24.4,82.5,1003.1,338.1,1.0,2.5,316.5,0.00,21.3,25.0,"20:35:28",1
"23/09/08","20:50",0.0,24.0,83.4,1002.9,356.0,0.8,1.7,343.0,0.00,21.1,25.0,"20:48:24",1
"23/09/08","21:00",0.0,23.6,84.2,1003.1,348.7,0.6,1.4,33.4,0.00,20.8,25.2,"20:55:52",1
"23/09/08","21:10",0.0,23.6,85.2,1002.6,337.9,0.8,2.1,340.5,0.00,21.0,25.0,"21:07:28",1
"23/09/08","21:20",0.0,23.5,85.8,1002.9,28.3,0.7,1.9,354.1,0.00,21.0,25.0,"21:12:24",1
"23/09/08","21:30",0.0,23.4,86.4,1003.1,326.1,0.8,1.4,336.2,0.00,21.0,25.0,"21:28:32",1
"23/09/08","21:40",0.0,23.2,87.2,1003.1,342.0,1.2,1.7,339.6,0.00,21.0,25.0,"21:35:12",1
"23/09/08","21:50",0.0,23.0,87.9,1003.1,332.1,1.0,1.6,338.0,0.00,20.9,24.9,"21:43:04",1
"23/09/08","22:00",0.0,22.9,88.5,1003.8,331.1,1.0,1.6,336.8,0.00,20.9,25.1,"21:59:04",1
"23/09/08","22:10",0.0,22.9,89.1,1003.6,331.7,1.1,1.4,324.7,0.00,21.0,25.0,"22:06:00",1
"23/09/08","22:20",0.0,22.8,89.5,1003.6,333.8,1.1,1.8,337.8,0.00,21.0,24.7,"22:13:20",1
"23/09/08","22:30",0.0,22.6,89.9,1003.8,311.2,0.7,1.2,321.2,0.00,20.9,25.0,"22:29:44",1
"23/09/08","22:40",0.0,22.6,90.3,1003.6,334.8,1.0,1.7,23.1,0.00,21.0,24.8,"22:36:08",1
"23/09/08","22:50",0.0,22.5,90.5,1003.4,320.5,1.0,1.3,320.8,0.00,20.9,24.7,"22:40:40",1
"23/09/08","23:00",0.0,22.5,90.8,1003.4,327.5,1.2,2.4,334.5,0.00,21.0,24.7,"22:56:40",1
"23/09/08","23:10",0.0,22.5,90.9,1003.8,312.4,1.1,2.2,319.1,0.00,21.0,24.7,"23:09:28",1
"23/09/08","23:20",0.0,22.5,91.1,1003.6,337.0,1.2,2.1,321.4,0.00,21.0,24.7,"23:12:48",1
"23/09/08","23:30",0.0,22.5,91.1,1003.6,349.9,1.1,1.8,305.8,0.00,21.0,24.8,"23:20:40",1
"23/09/08","23:40",0.0,22.5,91.2,1003.6,339.9,1.2,2.4,345.2,0.00,21.0,24.7,"23:38:48",1
"23/09/08","23:50",0.0,22.6,91.2,1003.8,336.4,1.6,2.7,326.2,0.00,21.1,24.6,"23:44:32",1
"23/09/08","24:00",0.0,22.5,91.1,1003.4,335.6,1.2,2.4,319.1,0.00,21.0,24.6,"23:52:48",1
